Air Resources Laboratory banner image
Air Resources Laboratory web site National Oceanic and Atmospheric Administration (NOAA)

ks roundup


Office: GLD

ASUS43 KGLD 190508
RWRGLD

GOODLAND FORECAST AREA HOURLY WEATHER ROUNDUP
NATIONAL WEATHER SERVICE GOODLAND KS
1000 PM MST SUN FEB 18 2018

...OFFICIAL OBSERVATIONS...

CITY           SKY/WX    TMP DP  RH WIND       PRES   REMARKS
GOODLAND KS    CLOUDY    28  26  92 N20G33    29.57R WCI  15
HILL CITY KS   CLOUDY    34  28  79 N24G39    29.51R
IMPERIAL NEB   CLOUDY    22  19  89 N28G36    29.64R WCI   4
MCCOOK NEB     CLOUDY    28  25  88 N23G33    29.61R WCI  14
AKRON CO       CLOUDY    17  16  95 N18G32    29.62R FOG     WCI   1
BURLINGTON CO  CLOUDY    27  26  96 N22G35    29.56R FOG     WCI  13
LIMON CO       CLOUDY    25  25 100 NE18      29.56R FOG     WCI  11
$$

...UNOFFICIAL OBSERVATIONS...

CITY           SKY/WX    TMP DP  RH WIND       PRES   REMARKS
COLBY KS       CLOUDY    32  30  93 N22G29    29.58R WCI  19
LENORA KS        N/A     29  32 100 N12         N/A  WCI  19
TRENTON NEB      N/A     24  32 100 N17         N/A  WCI  11
$$




Office: TOP ASUS43 KTOP 190508 RWRKS WEATHER ROUNDUP FOR KANSAS NATIONAL WEATHER SERVICE GOODLAND KS 1100 PM CST SUN FEB 18 2018 NOTE: "FAIR" INDICATES FEW OR NO CLOUDS BELOW 12,000 FEET WITH NO SIGNIFICANT WEATHER AND/OR OBSTRUCTIONS TO VISIBILITY. KSZ001>006-013>018-027>032-041>047-190600- NORTHWEST KANSAS CITY SKY/WX TMP DP RH WIND PRES REMARKS GOODLAND CLOUDY 28 26 92 N20G33 29.57R WCI 15 HAYS CLEAR 54 47 77 S20 29.45F HILL CITY CLOUDY 34 28 79 N24G39 29.51R WCI 21 RUSSELL CLEAR 55 50 83 S24G33 29.45F $$ KSZ061>065-074>080-084>089-190600- SOUTHWEST KANSAS CITY SKY/WX TMP DP RH WIND PRES REMARKS DODGE CITY CLEAR 66 38 35 SW24G40 29.49F ELKHART MOCLDY 56 31 39 S15 29.56R GARDEN CITY CLEAR 57 33 40 SW18 29.48R GREAT BEND CLEAR 53 49 86 S25 29.49F LIBERAL CLOUDY 61 39 44 SW18 29.55R PRATT CLOUDY 52 49 89 S18G25 29.56S $$ KSZ066>073-081>083-090>101-190600- SOUTHEAST KANSAS CITY SKY/WX TMP DP RH WIND PRES REMARKS CHANUTE LGT RAIN 53 52 96 S21G29 29.73F FOG COFFEYVILLE CLOUDY 54 53 97 S20G28 29.75F FOG HUTCHINSON CLOUDY 54 52 93 S20G30 29.58S MEDICINE LODGE N/A 54 52 93 S15G26 29.57F NEWTON CLOUDY 52 50 93 S23G33 29.62R PARSONS CLOUDY 53 53 100 S15G22 29.75F FOG WICHITA INTL CLOUDY 54 52 93 S22G29 29.63F WICHITA JABRA CLOUDY 52 52 100 S20G29 29.63F FOG WICHITA MCCONL CLOUDY 54 52 94 S22G28 29.63 WINFIELD CLOUDY 54 54 100 S17 29.68F $$ KSZ007>012-019>026-033>040-048>060-102>105-190600- NORTHEAST KANSAS CITY SKY/WX TMP DP RH WIND PRES REMARKS CONCORDIA CLEAR 51 48 89 S26G37 29.49F EMPORIA CLOUDY 51 49 92 S25G39 29.64F FOG LAWRENCE CLOUDY 53 49 86 S17G28 29.67F MANHATTAN CLOUDY 56 49 77 S17G26 29.57F MARYSVILLE CLOUDY 50 45 81 S14G21 29.55F OLATHE IND CLOUDY 52 48 86 S25G37 29.69F OLATHE EXE CLOUDY 51 48 89 S21G30 29.69F SALINA PTCLDY 57 53 86 S26G38 29.52F TOPEKA BILLARD CLOUDY 53 50 89 S17G32 29.63F TOPEKA FORBES CLOUDY 53 49 86 S23G32 29.65R $$
Office: EAX ASUS43 KEAX 190510 RWREAX WEATHER ROUNDUP FOR EASTERN KANSAS AND NORTHWEST MISSOURI NATIONAL WEATHER SERVICE KANSAS CITY/PLEASANT HILL MO 1100 PM CST SUN FEB 18 2018 KSZ040-057-103>105-MOZ028-029-037-043-190600- ...KANSAS CITY METROPOLITAN AREA... CITY SKY/WX TMP DP RH WIND PRES REMARKS K.C. INTL CLOUDY 53 47 79 S26G39 29.69S K.C. DOWNTOWN CLOUDY 55 47 74 S21G26 29.71S LEES SUMMIT CLOUDY 53 48 83 S22G29 29.71S OLATHE - IXD CLOUDY 52 48 86 S25G37 29.69F OLATHE - OJC CLOUDY 51 48 89 S21G30 29.69F LAWRENCE CLOUDY 53 49 86 S17G28 29.67F $$ MOZ001>008-011>017-020>025-030>033-038>040-044>046-053-054-190600- ...NORTHERN AND CENTRAL MISSOURI... CITY SKY/WX TMP DP RH WIND PRES REMARKS ST. JOSEPH CLOUDY 53 47 79 S16 29.67S MOSBY CLOUDY 54 45 71 S13 29.73R WARRENSBURG CLOUDY 55 46 71 S13G18 29.74F WHITEMAN AFB CLOUDY 54 45 72 S15G22 29.71F CLINTON CLOUDY 55 50 82 S14G22 29.77F SEDALIA CLOUDY 55 48 77 S21G28 29.78S WARSAW NOT AVBL CHILLICOTHE N/A 53 36 52 S10 29.73F KIRKSVILLE CLOUDY 50 40 68 S14G22 29.77S $$ MOZ041-047>049-056>058-063>065-088>090-097-190600- ...EASTERN AND SOUTHERN MISSOURI... CITY SKY/WX TMP DP RH WIND PRES REMARKS ST. LOUIS INTL CLOUDY 51 41 68 S17G23 29.88S SPIRIT OF STL MOCLDY 51 42 71 S7 29.87S COLUMBIA CLOUDY 52 43 71 S17G26 29.80S JEFFERSON CITY CLOUDY 53 44 71 S15 29.83S ROLLA CLOUDY 50 45 83 S25G33 29.87R OSAGE BEACH CLOUDY 51 47 86 S13 29.84S SPRINGFIELD CLOUDY 49 48 97 S15 29.83F FOG JOPLIN CLOUDY 58 55 90 S32G41 29.78F WEST PLAINS CLOUDY 49 47 93 S12G23 29.95S $$ IAZ060-094-KSZ022-034>040-054-083-096-NEZ052-066-093-190600- ...KANSAS...SOUTHEAST NEBRASKA AND IOWA... CITY SKY/WX TMP DP RH WIND PRES REMARKS TOPEKA CLOUDY 53 50 89 S17G32 29.63F MANHATTAN CLOUDY 56 49 77 S17G26 29.57F EMPORIA CLOUDY 51 49 92 S25G39 29.64F FOG CHANUTE LGT RAIN 53 52 96 S21G31 29.73F FOG WICHITA CLOUDY 54 52 93 S22G29 29.63F OMAHA CLOUDY 38 32 79 N16 29.64R WCI 29 LINCOLN CLOUDY 36 31 82 N14 29.64R WCI 27 FALLS CITY CLOUDY 53 44 71 S16G24 29.61F LAMONI CLOUDY 48 32 53 S7 29.69F DES MOINES CLOUDY 45 33 63 S8 29.68F $$